Location: Sternwarte auf dem Internationalen Platz Vogelsang IP
(50.5721°N, 6.4398°E)
Time: 22:06:07
(UTC+01:00)

Transit 2A Rocket - All Passes

Search period start: 10 December 2025 00:00
Search period end: 20 December 2025 00:00
Orbit: 580 x 903 km, 66.7° (Epoch: 10 December)

Date Brightness Start Highest point End Pass type
(mag) Time Alt. Az. Time Alt. Az. Time Alt. Az.
10 Dec - 08:47:55 10° SSE 08:52:24 25° ESE 08:57:07 10° NE daylight
10 Dec - 10:28:37 10° SW 10:34:17 74° NW 10:40:20 10° NE daylight
10 Dec - 12:12:54 10° W 12:17:45 26° NNW 12:22:45 10° NNE daylight
10 Dec - 13:58:26 10° NW 14:02:17 17° N 14:06:08 10° NE daylight
10 Dec - 15:42:06 10° NNW 15:46:54 24° NNE 15:51:38 10° ENE daylight
10 Dec - 17:24:31 10° NW 17:30:33 61° NE 17:36:20 10° SE visible
10 Dec - 19:07:26 10° NW 19:12:43 33° WSW 19:17:45 10° S visible
11 Dec - 08:04:16 10° SE 08:07:22 15° ESE 08:10:34 10° ENE daylight
11 Dec - 09:43:08 10° SSW 09:48:46 74° ESE 09:54:45 10° NE daylight
11 Dec - 11:26:33 10° W 11:31:47 33° NW 11:37:13 10° NNE daylight
11 Dec - 13:12:04 10° NW 13:16:04 18° N 13:20:06 10° NNE daylight
11 Dec - 14:56:27 10° NNW 15:00:47 20° NNE 15:05:06 10° ENE daylight
11 Dec - 16:39:02 10° NNW 16:44:49 43° NE 16:50:24 10° ESE daylight
11 Dec - 18:21:37 10° NW 18:27:27 52° WSW 18:33:00 10° SSE visible
12 Dec - 08:58:02 10° S 09:03:24 47° ESE 09:09:05 10° NE daylight
12 Dec - 10:40:25 10° WSW 10:45:56 45° NW 10:51:44 10° NNE daylight
12 Dec - 12:25:34 10° WNW 12:29:54 20° NNW 12:34:18 10° NNE daylight
12 Dec - 14:10:37 10° NNW 14:14:37 18° N 14:18:36 10° NE daylight
12 Dec - 15:53:33 10° NNW 15:58:57 32° NNE 16:04:12 10° E daylight
12 Dec - 17:35:58 10° NW 17:42:03 81° SW 17:47:49 10° SSE visible
12 Dec - 19:19:51 10° WNW 19:23:34 17° WSW 19:27:11 10° SW visible
13 Dec - 08:13:24 10° SSE 08:18:10 29° ESE 08:23:13 10° NE daylight
13 Dec - 09:54:32 10° SW 10:00:13 66° NW 10:06:15 10° NE daylight
13 Dec - 11:39:04 10° WNW 11:43:48 24° NNW 11:48:40 10° NNE daylight
13 Dec - 13:24:33 10° NW 13:28:23 17° N 13:32:15 10° NE daylight
13 Dec - 15:08:01 10° NNW 15:12:58 25° NNE 15:17:49 10° E daylight
13 Dec - 16:50:26 10° NW 16:56:30 69° NE 17:02:16 10° SE daylight
13 Dec - 18:33:30 10° NW 18:38:30 28° WSW 18:43:17 10° SSW visible
14 Dec - 07:29:25 10° SE 07:33:06 18° ESE 07:36:55 10° ENE visible
14 Dec - 09:08:58 10° SSW 09:14:38 84° SE 09:20:42 10° NE daylight
14 Dec - 10:52:40 10° W 10:57:48 31° NNW 11:03:07 10° NNE daylight
14 Dec - 12:38:14 10° NW 12:42:10 18° N 12:46:08 10° NE daylight
14 Dec - 14:22:24 10° NNW 14:26:52 21° NNE 14:31:18 10° ENE daylight
14 Dec - 16:04:56 10° NNW 16:10:47 48° NE 16:16:25 10° ESE daylight
14 Dec - 17:47:36 10° NW 17:53:17 45° WSW 17:58:41 10° S visible
15 Dec - 08:23:44 10° SSW 08:29:14 54° ESE 08:35:04 10° NE daylight
15 Dec - 10:06:26 10° WSW 10:11:54 41° NW 10:17:38 10° NNE daylight
15 Dec - 11:51:45 10° WNW 11:55:59 19° NNW 12:00:16 10° NNE daylight
15 Dec - 13:36:38 10° NNW 13:40:42 18° N 13:44:47 10° NE daylight
15 Dec - 15:19:26 10° NNW 15:24:58 35° NE 15:30:18 10° E daylight
15 Dec - 17:01:54 10° NW 17:07:55 71° WSW 17:13:37 10° SSE visible
15 Dec - 18:46:13 10° WNW 18:49:17 15° WSW 18:52:17 10° SW visible
16 Dec - 07:38:56 10° S 07:43:57 34° ESE 07:49:15 10° NE visible
16 Dec - 09:20:28 10° SW 09:26:09 59° NW 09:32:08 10° NNE daylight
16 Dec - 11:05:13 10° WNW 11:09:51 23° NNW 11:14:34 10° NNE daylight
16 Dec - 12:50:37 10° NW 12:54:30 17° N 12:58:21 10° NE daylight
16 Dec - 14:33:55 10° NNW 14:39:00 27° NNE 14:43:58 10° E daylight
16 Dec - 16:16:19 10° NW 16:22:24 78° NE 16:28:10 10° SE daylight
16 Dec - 17:59:35 10° WNW 18:04:16 24° WSW 18:08:44 10° SSW visible
17 Dec - 06:54:41 10° SSE 06:58:49 21° ESE 07:03:07 10° ENE visible
17 Dec - 08:34:48 10° SW 08:40:31 86° NW 08:46:36 10° NE daylight
17 Dec - 10:18:46 10° W 10:23:49 28° NNW 10:29:00 10° NNE daylight
17 Dec - 12:04:22 10° NW 12:08:16 17° N 12:12:10 10° NE daylight
17 Dec - 13:48:19 10° NNW 13:52:56 22° NNE 13:57:28 10° ENE daylight
17 Dec - 15:30:48 10° NNW 15:36:45 53° NE 15:42:24 10° ESE daylight
17 Dec - 17:13:34 10° NW 17:19:05 39° WSW 17:24:19 10° S visible
18 Dec - 06:11:37 10° ESE 06:13:49 12° E 06:16:05 10° ENE visible
18 Dec - 07:49:26 10° SSW 07:55:03 63° ESE 08:01:00 10° NE visible
18 Dec - 09:32:29 10° WSW 09:37:53 37° NW 09:43:30 10° NNE daylight
18 Dec - 11:17:55 10° WNW 11:22:03 19° NNW 11:26:13 10° NNE daylight
18 Dec - 13:02:36 10° NNW 13:06:47 19° NNE 13:10:56 10° ENE daylight
18 Dec - 14:45:18 10° NNW 14:50:56 38° NE 14:56:22 10° ESE daylight
18 Dec - 16:27:48 10° NW 16:33:45 62° WSW 16:39:21 10° SSE daylight
18 Dec - 18:12:49 10° WNW 18:14:58 12° W 18:17:05 10° WSW visible
19 Dec - 07:04:29 10° S 07:09:43 39° ESE 07:15:15 10° NE visible
19 Dec - 08:46:25 10° WSW 08:52:05 52° NW 08:58:00 10° NNE daylight
19 Dec - 10:31:22 10° WNW 10:35:54 22° NNW 10:40:29 10° NNE daylight
19 Dec - 12:16:39 10° NW 12:20:34 17° N 12:24:28 10° NE daylight
19 Dec - 13:59:48 10° NNW 14:05:00 29° NNE 14:10:05 10° E daylight
19 Dec - 15:42:12 10° NW 15:48:17 87° ENE 15:54:01 10° SE daylight
19 Dec - 17:25:42 10° WNW 17:29:59 21° WSW 17:34:05 10° SSW visible
